Powrót do katalogu

CZ-4 DEB

AktywnyPO
NORAD 26134·DEBRIS·🇨🇳 China

Wystrzelony Oct 14, 1999 z Taiyuan Satellite Launch Center

Loading…

Następne Przeloty (najbliższe 24 godziny)

TLE

ŚwieżeSource: Space-Track

Epoka: Sep 14, 2026, 05:17 UTC

1 26134U 99057W   26257.22076866  .00000517  00000-0  36582-3 0  9995
2 26134  98.9857  49.1720 0417798  96.5165  74.4938 13.66431763313243

Śledź CZ-4 DEB w czasie rzeczywistym z AllMySat

Download on the App Store